Notices

What's New in latest Release from April 7th, 2021:

- Updated Glossary, including Speed of Maximum Gust, and Total Hourly Precipitation

- Updated national and regional climate services offices contacts and prices information

- Addition of station inventory lists for 1981-2010, 1971-2000, and 1961-1990 Normals.

If you haven't already, please take our survey and provide feedback about our website: https://eccc.sondage-survey.ca/f/LanguageSelection.aspx?s=442ca660-fcf1-47c0-95a9-59707d6fd709

Hourly Data Report for August 20, 2004

SHERBROOKE A
QUEBEC

45°26'00.000" N
71°41'00.000" W
241.40 m
7028124
71610
YSC

Download Data

Hourly Data (August 2004)
Hourly Data Report for August 20, 2004
TIME
LST
Temp Definition
°C
Dew Point Definition
°C
Rel Hum Definition
%
Precip. Amount Definition
mm

Wind Dir Definition
10's deg

Wind Spd Definition
km/h
Visibility Definition
km
Stn Press Definition
kPa
Hmdx Definition


Wind Chill Definition


Weather Definition


00:00 11.2 10.8 97     0 0.2 98.52      
01:00 13.7 13.2 97   22 7 9.7 98.53      
02:00 14.2 13.3 94   22 9 15.0 98.53      
03:00 14.1 13.2 94   22 7 11.3 98.55      
04:00 13.5 12.5 94   21 9 15.0 98.59      
05:00 13.0 11.3 89   21 7 15.0 98.64      
06:00 12.9 11.2 89   22 6 15.0 98.69      
07:00 14.8 12.1 84   21 7 24.1 98.72     Mostly Cloudy
08:00 16.5 12.4 77   21 9 24.1 98.73     Mostly Cloudy
09:00 18.3 13.4 73   20 15 24.1 98.70     Mostly Cloudy
10:00 19.8 13.4 67   22 9 24.1 98.66     Mostly Cloudy
11:00 20.9 13.0 61   23 13 24.1 98.61     Mostly Cloudy
12:00 21.6 12.8 57   22 17 24.1 98.56     Mostly Cloudy
13:00 21.5 12.8 58   21 11 24.1 98.51     Mostly Cloudy
14:00 22.8 12.9 54   25 17 24.1 98.48 26   Mostly Cloudy
15:00 23.0 11.4 48   26 19 24.1 98.46 25   Mostly Cloudy
16:00 22.6 13.2 55   25 7 24.1 98.44 26   Mostly Cloudy
17:00 21.5 12.9 58   25 9 15.0 98.42      
18:00 20.1 14.4 70   18 6 15.0 98.44      
19:00 19.3 14.7 75   21 6 15.0 98.44      
20:00 18.5 14.7 79   19 6 15.0 98.40      
21:00 18.0 14.4 79   23 4 15.0 98.44      
22:00 17.8 14.1 79   19 4 15.0 98.43      
23:00 17.6 13.8 78   21 4 15.0 98.42      

Notes on Data Quality.

Legend

  • E = Estimated
  • M = Missing
  • NA = Not Available*
  • [empty] = Indicates an unobserved value
Date modified: